Tabellarische Ansicht des 29.4.2009


Die einzelnen Werte des Tages

Uhrzeit Temperatur Luftdruck Luftfeuchte Wind Hi-Wind Taupunkt THW Index Wind Chill Heat Index Solar- strahlung Regen

00:00

10.5 C

1004.8 hpa

88 %

1.6 km/h aus 113

4.8 km/h aus SW

8.6 C

10.6 C

10.5 C

10.6 C

0 W/m

0.00 mm

00:05

10.3 C

1004.8 hpa

88 %

0.0 km/h aus 111

3.2 km/h aus SW

8.4 C

10.4 C

10.3 C

10.4 C

0 W/m

0.00 mm

00:10

10.2 C

1004.8 hpa

89 %

0.0 km/h aus 115

1.6 km/h aus SW

8.5 C

10.3 C

10.2 C

10.3 C

0 W/m

0.00 mm

00:15

10.2 C

1005.0 hpa

90 %

1.6 km/h aus 110

4.8 km/h aus SW

8.6 C

10.3 C

10.2 C

10.3 C

0 W/m

0.00 mm

00:20

10.1 C

1005.0 hpa

90 %

1.6 km/h aus 110

4.8 km/h aus SW

8.5 C

10.2 C

10.1 C

10.2 C

0 W/m

0.00 mm

00:25

10.1 C

1005.0 hpa

90 %

0.0 km/h aus 114

3.2 km/h aus SW

8.5 C

10.2 C

10.1 C

10.2 C

0 W/m

0.00 mm

00:30

10.1 C

1005.0 hpa

91 %

1.6 km/h aus 109

4.8 km/h aus SW

8.7 C

10.2 C

10.1 C

10.2 C

0 W/m

0.00 mm

00:35

10.2 C

1005.0 hpa

90 %

1.6 km/h aus 113

4.8 km/h aus SW

8.6 C

10.3 C

10.2 C

10.3 C

0 W/m

0.00 mm

00:40

10.2 C

1005.0 hpa

90 %

3.2 km/h aus 109

4.8 km/h aus SW

8.6 C

10.3 C

10.2 C

10.3 C

0 W/m

0.00 mm

00:45

10.2 C

1005.0 hpa

90 %

3.2 km/h aus 109

6.4 km/h aus SW

8.7 C

10.4 C

10.2 C

10.4 C

0 W/m

0.00 mm

00:50

10.2 C

1005.0 hpa

89 %

3.2 km/h aus 111

4.8 km/h aus SW

8.5 C

10.3 C

10.2 C

10.3 C

0 W/m

0.00 mm

00:55

10.3 C

1005.0 hpa

89 %

3.2 km/h aus 109

6.4 km/h aus SW

8.5 C

10.4 C

10.3 C

10.4 C

0 W/m

0.00 mm

01:00

10.3 C

1005.0 hpa

89 %

4.8 km/h aus 112

8.0 km/h aus SW

8.5 C

10.3 C

10.2 C

10.4 C

0 W/m

0.00 mm

01:05

10.3 C

1005.0 hpa

89 %

3.2 km/h aus 108

8.0 km/h aus SW

8.5 C

10.4 C

10.3 C

10.4 C

0 W/m

0.00 mm

01:10

10.3 C

1005.0 hpa

89 %

3.2 km/h aus 110

6.4 km/h aus SW

8.5 C

10.4 C

10.3 C

10.4 C

0 W/m

0.00 mm

01:15

10.2 C

1005.2 hpa

89 %

1.6 km/h aus 110

6.4 km/h aus SW

8.5 C

10.3 C

10.2 C

10.3 C

0 W/m

0.00 mm

01:20

10.2 C

1005.2 hpa

89 %

1.6 km/h aus 104

4.8 km/h aus SW

8.4 C

10.3 C

10.2 C

10.3 C

0 W/m

0.00 mm

01:25

10.1 C

1005.2 hpa

89 %

1.6 km/h aus 107

4.8 km/h aus SW

8.4 C

10.2 C

10.1 C

10.2 C

0 W/m

0.00 mm

01:30

10.1 C

1005.3 hpa

90 %

3.2 km/h aus 109

6.4 km/h aus SW

8.5 C

10.2 C

10.1 C

10.2 C

0 W/m

0.00 mm

01:35

10.0 C

1005.3 hpa

90 %

3.2 km/h aus 111

6.4 km/h aus SW

8.4 C

10.2 C

10.0 C

10.2 C

0 W/m

0.00 mm

01:40

10.0 C

1005.3 hpa

90 %

3.2 km/h aus 104

6.4 km/h aus SW

8.4 C

10.2 C

10.0 C

10.2 C

0 W/m

0.00 mm

01:45

10.0 C

1005.2 hpa

89 %

3.2 km/h aus 107

6.4 km/h aus SW

8.3 C

10.2 C

10.0 C

10.2 C

0 W/m

0.00 mm

01:50

10.1 C

1005.2 hpa

89 %

1.6 km/h aus 103

6.4 km/h aus SW

8.3 C

10.2 C

10.1 C

10.2 C

0 W/m

0.00 mm

01:55

10.0 C

1005.2 hpa

89 %

1.6 km/h aus 108

3.2 km/h aus SW

8.3 C

10.2 C

10.0 C

10.2 C

0 W/m

0.00 mm

02:00

10.0 C

1005.2 hpa

89 %

1.6 km/h aus 107

4.8 km/h aus SW

8.3 C

10.2 C

10.0 C

10.2 C

0 W/m

0.00 mm

02:05

9.8 C

1005.2 hpa

89 %

1.6 km/h aus 108

4.8 km/h aus SW

8.1 C

10.0 C

9.8 C

10.0 C

0 W/m

0.00 mm

02:10

9.8 C

1005.2 hpa

90 %

1.6 km/h aus 110

4.8 km/h aus SW

8.2 C

9.9 C

9.8 C

9.9 C

0 W/m

0.00 mm

02:15

9.7 C

1005.3 hpa

90 %

1.6 km/h aus 114

3.2 km/h aus SW

8.1 C

9.8 C

9.7 C

9.8 C

0 W/m

0.00 mm

02:20

9.6 C

1005.3 hpa

91 %

0.0 km/h aus 111

3.2 km/h aus SW

8.2 C

9.7 C

9.6 C

9.7 C

0 W/m

0.00 mm

02:25

9.6 C

1005.3 hpa

91 %

1.6 km/h aus 111

3.2 km/h aus SW

8.2 C

9.7 C

9.6 C

9.7 C

0 W/m

0.00 mm

02:30

9.6 C

1005.3 hpa

91 %

1.6 km/h aus 113

3.2 km/h aus SW

8.2 C

9.8 C

9.6 C

9.8 C

0 W/m

0.00 mm

02:35

9.6 C

1005.3 hpa

91 %

0.0 km/h aus 113

3.2 km/h aus SW

8.2 C

9.8 C

9.6 C

9.8 C

0 W/m

0.00 mm

02:40

9.6 C

1005.3 hpa

91 %

0.0 km/h aus 112

1.6 km/h aus SW

8.2 C

9.8 C

9.6 C

9.8 C

0 W/m

0.00 mm

02:45

9.6 C

1005.3 hpa

91 %

0.0 km/h aus 111

1.6 km/h aus SW

8.2 C

9.7 C

9.6 C

9.7 C

0 W/m

0.00 mm

02:50

9.6 C

1005.3 hpa

91 %

1.6 km/h aus 113

3.2 km/h aus SW

8.2 C

9.7 C

9.6 C

9.7 C

0 W/m

0.00 mm

02:55

9.6 C

1005.3 hpa

91 %

0.0 km/h aus 112

3.2 km/h aus SW

8.2 C

9.8 C

9.6 C

9.8 C

0 W/m

0.00 mm

03:00

9.6 C

1005.5 hpa

91 %

0.0 km/h aus 116

3.2 km/h aus SW

8.2 C

9.7 C

9.6 C

9.7 C

0 W/m

0.00 mm

03:05

9.6 C

1005.5 hpa

91 %

0.0 km/h aus 112

3.2 km/h aus SW

8.2 C

9.7 C

9.6 C

9.7 C

0 W/m

0.00 mm

03:10

9.6 C

1005.5 hpa

91 %

0.0 km/h aus 111

3.2 km/h aus SW

8.2 C

9.7 C

9.6 C

9.7 C

0 W/m

0.00 mm

03:15

9.5 C

1005.5 hpa

91 %

1.6 km/h aus 112

3.2 km/h aus SW

8.1 C

9.7 C

9.5 C

9.7 C

0 W/m

0.00 mm

03:20

9.5 C

1005.5 hpa

91 %

3.2 km/h aus 107

6.4 km/h aus SW

8.1 C

9.7 C

9.5 C

9.7 C

0 W/m

0.00 mm

03:25

9.5 C

1005.5 hpa

91 %

3.2 km/h aus 111

6.4 km/h aus SW

8.1 C

9.7 C

9.5 C

9.7 C

0 W/m

0.00 mm

03:30

9.5 C

1005.4 hpa

91 %

3.2 km/h aus 112

8.0 km/h aus SW

8.1 C

9.7 C

9.5 C

9.7 C

0 W/m

0.00 mm

03:35

9.4 C

1005.4 hpa

90 %

1.6 km/h aus 114

4.8 km/h aus SW

7.9 C

9.6 C

9.4 C

9.6 C

0 W/m

0.00 mm

03:40

9.3 C

1005.4 hpa

90 %

1.6 km/h aus 111

4.8 km/h aus SW

7.8 C

9.5 C

9.3 C

9.5 C

0 W/m

0.00 mm

03:45

9.2 C

1005.5 hpa

90 %

1.6 km/h aus 110

3.2 km/h aus SW

7.6 C

9.3 C

9.2 C

9.3 C

0 W/m

0.00 mm

03:50

9.1 C

1005.5 hpa

90 %

1.6 km/h aus 107

4.8 km/h aus SW

7.6 C

9.2 C

9.1 C

9.2 C

0 W/m

0.00 mm

03:55

9.1 C

1005.5 hpa

90 %

3.2 km/h aus 111

6.4 km/h aus SW

7.5 C

9.2 C

9.1 C

9.2 C

0 W/m

0.00 mm

04:00

9.0 C

1005.5 hpa

90 %

3.2 km/h aus 113

6.4 km/h aus SW

7.4 C

9.1 C

9.0 C

9.1 C

0 W/m

0.00 mm

04:05

8.9 C

1005.5 hpa

90 %

1.6 km/h aus 112

6.4 km/h aus SW

7.4 C

9.1 C

8.9 C

9.1 C

0 W/m

0.00 mm

04:10

8.8 C

1005.5 hpa

91 %

0.0 km/h aus 110

3.2 km/h aus SW

7.4 C

8.9 C

8.8 C

8.9 C

0 W/m

0.00 mm

04:15

8.6 C

1005.6 hpa

91 %

0.0 km/h aus 108

1.6 km/h aus SW

7.2 C

8.7 C

8.6 C

8.7 C

0 W/m

0.00 mm

04:20

8.5 C

1005.6 hpa

91 %

0.0 km/h aus 114

1.6 km/h aus SW

7.1 C

8.6 C

8.5 C

8.6 C

0 W/m

0.00 mm

04:25

8.3 C

1005.6 hpa

91 %

0.0 km/h aus 111

1.6 km/h aus SW

6.9 C

8.4 C

8.3 C

8.4 C

0 W/m

0.00 mm

04:30

8.2 C

1005.6 hpa

92 %

0.0 km/h aus 112

1.6 km/h aus SW

7.0 C

8.3 C

8.2 C

8.3 C

0 W/m

0.00 mm

04:35

8.2 C

1005.6 hpa

92 %

0.0 km/h aus 114

0.0 km/h aus ---

6.9 C

8.3 C

8.2 C

8.3 C

0 W/m

0.00 mm

04:40

8.1 C

1005.6 hpa

92 %

0.0 km/h aus 111

0.0 km/h aus ---

6.8 C

8.2 C

8.1 C

8.2 C

0 W/m

0.00 mm

04:45

7.9 C

1005.6 hpa

92 %

0.0 km/h aus 114

0.0 km/h aus ---

6.7 C

8.0 C

7.9 C

8.0 C

0 W/m

0.00 mm

04:50

7.8 C

1005.6 hpa

92 %

0.0 km/h aus 109

0.0 km/h aus ---

6.6 C

7.9 C

7.8 C

7.9 C

0 W/m

0.00 mm

04:55

7.6 C

1005.6 hpa

92 %

0.0 km/h aus 108

0.0 km/h aus ---

6.4 C

7.7 C

7.6 C

7.7 C

0 W/m

0.00 mm

05:00

7.6 C

1005.6 hpa

92 %

0.0 km/h aus 111

0.0 km/h aus ---

6.3 C

7.7 C

7.6 C

7.7 C

0 W/m

0.00 mm

05:05

7.6 C

1005.6 hpa

93 %

0.0 km/h aus 114

0.0 km/h aus ---

6.6 C

7.7 C

7.6 C

7.7 C

0 W/m

0.00 mm

05:10

7.7 C

1005.6 hpa

93 %

0.0 km/h aus 107

0.0 km/h aus ---

6.7 C

7.8 C

7.7 C

7.8 C

0 W/m

0.00 mm

05:15

7.8 C

1005.6 hpa

93 %

0.0 km/h aus 115

1.6 km/h aus SW

6.8 C

7.9 C

7.8 C

7.9 C

0 W/m

0.00 mm

05:20

7.8 C

1005.6 hpa

93 %

0.0 km/h aus 112

0.0 km/h aus ---

6.7 C

7.9 C

7.8 C

7.9 C

0 W/m

0.00 mm

05:25

7.8 C

1005.6 hpa

93 %

0.0 km/h aus 114

0.0 km/h aus ---

6.7 C

7.9 C

7.8 C

7.9 C

0 W/m

0.00 mm

05:30

7.8 C

1005.7 hpa

93 %

0.0 km/h aus 110

0.0 km/h aus ---

6.7 C

7.9 C

7.8 C

7.9 C

0 W/m

0.00 mm

05:35

7.8 C

1005.7 hpa

94 %

0.0 km/h aus 109

0.0 km/h aus ---

6.9 C

7.9 C

7.8 C

7.9 C

0 W/m

0.00 mm

05:40

7.8 C

1005.7 hpa

94 %

0.0 km/h aus 114

0.0 km/h aus ---

6.9 C

8.0 C

7.8 C

8.0 C

0 W/m

0.00 mm

05:45

7.9 C

1005.6 hpa

94 %

0.0 km/h aus 111

0.0 km/h aus ---

7.0 C

8.1 C

7.9 C

8.1 C

0 W/m

0.00 mm

05:50

7.9 C

1005.6 hpa

94 %

0.0 km/h aus 106

0.0 km/h aus ---

7.0 C

8.1 C

7.9 C

8.1 C

0 W/m

0.00 mm

05:55

7.9 C

1005.6 hpa

94 %

0.0 km/h aus 115

0.0 km/h aus ---

7.0 C

8.1 C

7.9 C

8.1 C

0 W/m

0.00 mm

06:00

7.9 C

1005.9 hpa

94 %

0.0 km/h aus 112

0.0 km/h aus ---

7.0 C

8.1 C

7.9 C

8.1 C

0 W/m

0.00 mm

06:05

8.0 C

1005.9 hpa

94 %

0.0 km/h aus 110

0.0 km/h aus ---

7.1 C

8.2 C

8.0 C

8.2 C

0 W/m

0.00 mm

06:10

8.0 C

1005.9 hpa

94 %

0.0 km/h aus 112

0.0 km/h aus ---

7.1 C

8.2 C

8.0 C

8.2 C

0 W/m

0.00 mm

06:15

8.0 C

1006.0 hpa

94 %

0.0 km/h aus 112

0.0 km/h aus ---

7.1 C

8.2 C

8.0 C

8.2 C

0 W/m

0.00 mm

06:20

8.0 C

1006.0 hpa

94 %

0.0 km/h aus 112

0.0 km/h aus ---

7.1 C

8.2 C

8.0 C

8.2 C

0 W/m

0.00 mm

06:25

8.0 C

1006.0 hpa

94 %

0.0 km/h aus 112

0.0 km/h aus ---

7.1 C

8.2 C

8.0 C

8.2 C

0 W/m

0.00 mm

06:30

8.1 C

1006.1 hpa

94 %

0.0 km/h aus 111

0.0 km/h aus ---

7.1 C

8.2 C

8.1 C

8.2 C

0 W/m

0.00 mm

06:35

8.1 C

1006.1 hpa

94 %

0.0 km/h aus 105

0.0 km/h aus ---

7.2 C

8.3 C

8.1 C

8.3 C

0 W/m

0.00 mm

06:40

8.3 C

1006.1 hpa

95 %

0.0 km/h aus 112

1.6 km/h aus SW

7.5 C

8.4 C

8.3 C

8.4 C

0 W/m

0.00 mm

06:45

8.4 C

1006.1 hpa

95 %

0.0 km/h aus 111

0.0 km/h aus ---

7.7 C

8.6 C

8.4 C

8.6 C

0 W/m

0.00 mm

06:50

8.6 C

1006.1 hpa

95 %

0.0 km/h aus 112

0.0 km/h aus ---

7.8 C

8.7 C

8.6 C

8.7 C

0 W/m

0.00 mm

06:55

8.6 C

1006.1 hpa

95 %

0.0 km/h aus 113

0.0 km/h aus ---

7.9 C

8.8 C

8.6 C

8.8 C

0 W/m

0.00 mm

07:00

8.6 C

1006.4 hpa

95 %

0.0 km/h aus 116

0.0 km/h aus ---

7.9 C

8.8 C

8.6 C

8.8 C

0 W/m

0.00 mm

07:05

8.6 C

1006.4 hpa

95 %

0.0 km/h aus 115

0.0 km/h aus ---

7.8 C

8.7 C

8.6 C

8.7 C

0 W/m

0.00 mm

07:10

8.6 C

1006.4 hpa

95 %

0.0 km/h aus 113

0.0 km/h aus ---

7.9 C

8.8 C

8.6 C

8.8 C

0 W/m

0.00 mm

07:15

8.7 C

1006.5 hpa

95 %

0.0 km/h aus 114

0.0 km/h aus ---

8.0 C

8.9 C

8.7 C

8.9 C

0 W/m

0.25 mm

07:20

8.8 C

1006.5 hpa

95 %

0.0 km/h aus 110

1.6 km/h aus SW

8.0 C

9.0 C

8.8 C

9.0 C

0 W/m

0.00 mm

07:25

8.8 C

1006.5 hpa

95 %

0.0 km/h aus 112

0.0 km/h aus ---

8.1 C

9.1 C

8.8 C

9.1 C

0 W/m

0.00 mm

07:30

8.9 C

1006.5 hpa

95 %

0.0 km/h aus 111

0.0 km/h aus ---

8.2 C

9.2 C

8.9 C

9.2 C

0 W/m

0.00 mm

07:35

9.0 C

1006.5 hpa

95 %

0.0 km/h aus 113

0.0 km/h aus ---

8.2 C

9.2 C

9.0 C

9.2 C

0 W/m

0.00 mm

07:40

9.0 C

1006.5 hpa

95 %

0.0 km/h aus 114

0.0 km/h aus ---

8.2 C

9.2 C

9.0 C

9.2 C

0 W/m

0.00 mm

07:45

9.1 C

1006.6 hpa

95 %

0.0 km/h aus 113

0.0 km/h aus ---

8.4 C

9.3 C

9.1 C

9.3 C

0 W/m

0.00 mm

07:50

9.2 C

1006.6 hpa

95 %

0.0 km/h aus 108

0.0 km/h aus ---

8.5 C

9.5 C

9.2 C

9.5 C

0 W/m

0.00 mm

07:55

9.3 C

1006.6 hpa

95 %

0.0 km/h aus 111

0.0 km/h aus ---

8.5 C

9.6 C

9.3 C

9.6 C

0 W/m

0.00 mm

08:00

9.3 C

1006.6 hpa

95 %

0.0 km/h aus 113

0.0 km/h aus ---

8.6 C

9.6 C

9.3 C

9.6 C

0 W/m

0.00 mm

08:05

9.4 C

1006.6 hpa

95 %

0.0 km/h aus 111

0.0 km/h aus ---

8.6 C

9.7 C

9.4 C

9.7 C

0 W/m

0.00 mm

08:10

9.3 C

1006.6 hpa

95 %

0.0 km/h aus 111

0.0 km/h aus ---

8.6 C

9.6 C

9.3 C

9.6 C

0 W/m

0.00 mm

08:15

9.4 C

1006.6 hpa

94 %

0.0 km/h aus 106

3.2 km/h aus SW

8.5 C

9.7 C

9.4 C

9.7 C

0 W/m

0.00 mm

08:20

9.6 C

1006.6 hpa

94 %

0.0 km/h aus 106

1.6 km/h aus SW

8.6 C

9.8 C

9.6 C

9.8 C

0 W/m

0.00 mm

08:25

9.6 C

1006.6 hpa

94 %

0.0 km/h aus 116

1.6 km/h aus SW

8.7 C

9.9 C

9.6 C

9.9 C

0 W/m

0.00 mm

08:30

9.7 C

1006.6 hpa

93 %

1.6 km/h aus 105

4.8 km/h aus SW

8.6 C

9.9 C

9.7 C

9.9 C

0 W/m

0.00 mm

08:35

9.8 C

1006.6 hpa

92 %

1.6 km/h aus 106

4.8 km/h aus SW

8.6 C

10.1 C

9.8 C

10.1 C

0 W/m

0.00 mm

08:40

10.1 C

1006.6 hpa

92 %

0.0 km/h aus 114

1.6 km/h aus SW

8.8 C

10.3 C

10.1 C

10.3 C

0 W/m

0.00 mm

08:45

10.2 C

1006.7 hpa

92 %

0.0 km/h aus 107

3.2 km/h aus SW

8.9 C

10.3 C

10.2 C

10.3 C

0 W/m

0.00 mm

08:50

10.2 C

1006.7 hpa

91 %

3.2 km/h aus 114

8.0 km/h aus SW

8.8 C

10.3 C

10.2 C

10.3 C

0 W/m

0.00 mm

08:55

10.3 C

1006.7 hpa

89 %

3.2 km/h aus 104

6.4 km/h aus SW

8.6 C

10.4 C

10.3 C

10.4 C

0 W/m

0.00 mm

09:00

10.6 C

1006.6 hpa

89 %

3.2 km/h aus 108

9.7 km/h aus SW

8.8 C

10.7 C

10.6 C

10.7 C

0 W/m

0.00 mm

09:05

10.7 C

1006.6 hpa

89 %

4.8 km/h aus 102

9.7 km/h aus WNW

8.9 C

10.7 C

10.6 C

10.8 C

0 W/m

0.00 mm

09:10

10.7 C

1006.6 hpa

88 %

4.8 km/h aus 100

9.7 km/h aus NW

8.8 C

10.7 C

10.6 C

10.8 C

0 W/m

0.00 mm

09:15

10.7 C

1006.8 hpa

87 %

3.2 km/h aus 110

6.4 km/h aus NW

8.6 C

10.7 C

10.7 C

10.7 C

0 W/m

0.00 mm

09:20

10.6 C

1006.8 hpa

87 %

3.2 km/h aus 112

6.4 km/h aus NW

8.5 C

10.6 C

10.6 C

10.6 C

0 W/m

0.00 mm

09:25

10.7 C

1006.8 hpa

88 %

3.2 km/h aus 111

6.4 km/h aus NW

8.8 C

10.7 C

10.7 C

10.7 C

0 W/m

0.00 mm

09:30

10.7 C

1006.8 hpa

88 %

1.6 km/h aus 111

4.8 km/h aus NW

8.8 C

10.8 C

10.7 C

10.8 C

0 W/m

0.00 mm

09:35

10.8 C

1006.8 hpa

87 %

3.2 km/h aus 114

8.0 km/h aus NW

8.8 C

10.9 C

10.8 C

10.9 C

0 W/m

0.00 mm

09:40

10.8 C

1006.8 hpa

88 %

1.6 km/h aus 108

6.4 km/h aus NW

8.9 C

10.9 C

10.8 C

10.9 C

0 W/m

0.00 mm

09:45

10.9 C

1007.1 hpa

88 %

1.6 km/h aus 112

4.8 km/h aus NW

9.0 C

10.9 C

10.9 C

10.9 C

0 W/m

0.00 mm

09:50

10.8 C

1007.1 hpa

87 %

1.6 km/h aus 111

6.4 km/h aus NW

8.8 C

10.9 C

10.8 C

10.9 C

0 W/m

0.00 mm

09:55

10.8 C

1007.1 hpa

87 %

3.2 km/h aus 109

8.0 km/h aus NW

8.7 C

10.8 C

10.8 C

10.8 C

0 W/m

0.00 mm

10:00

10.8 C

1007.1 hpa

87 %

1.6 km/h aus 115

6.4 km/h aus NW

8.7 C

10.8 C

10.8 C

10.8 C

0 W/m

0.00 mm

10:05

10.8 C

1007.1 hpa

87 %

1.6 km/h aus 112

6.4 km/h aus NW

8.8 C

10.9 C

10.8 C

10.9 C

0 W/m

0.00 mm

10:10

10.9 C

1007.1 hpa

87 %

3.2 km/h aus 108

6.4 km/h aus NW

8.9 C

11.0 C

10.9 C

11.0 C

0 W/m

0.00 mm

10:15

10.9 C

1007.1 hpa

86 %

3.2 km/h aus 107

8.0 km/h aus NW

8.7 C

10.9 C

10.9 C

10.9 C

0 W/m

0.00 mm

10:20

10.9 C

1007.1 hpa

86 %

4.8 km/h aus 101

6.4 km/h aus NW

8.7 C

10.9 C

10.9 C

10.9 C

0 W/m

0.00 mm

10:25

10.9 C

1007.1 hpa

86 %

1.6 km/h aus 102

4.8 km/h aus NW

8.6 C

10.9 C

10.9 C

10.9 C

0 W/m

0.00 mm

10:30

10.9 C

1007.3 hpa

87 %

1.6 km/h aus 104

6.4 km/h aus NW

8.9 C

11.0 C

10.9 C

11.0 C

0 W/m

0.00 mm

10:35

10.9 C

1007.3 hpa

87 %

3.2 km/h aus 97

8.0 km/h aus NW

8.9 C

11.0 C

10.9 C

11.0 C

0 W/m

0.00 mm

10:40

10.9 C

1007.3 hpa

87 %

1.6 km/h aus 96

6.4 km/h aus NW

8.9 C

11.0 C

10.9 C

11.0 C

0 W/m

0.00 mm

10:45

10.9 C

1007.3 hpa

86 %

1.6 km/h aus 98

6.4 km/h aus NW

8.6 C

10.9 C

10.9 C

10.9 C

0 W/m

0.00 mm

10:50

11.0 C

1007.3 hpa

86 %

3.2 km/h aus 96

6.4 km/h aus NW

8.7 C

11.0 C

11.0 C

11.0 C

0 W/m

0.00 mm

10:55

11.6 C

1007.3 hpa

87 %

1.6 km/h aus 102

6.4 km/h aus NW

9.5 C

11.6 C

11.6 C

11.6 C

0 W/m

0.00 mm

11:00

11.7 C

1007.4 hpa

86 %

3.2 km/h aus 107

4.8 km/h aus NW

9.4 C

11.6 C

11.7 C

11.6 C

0 W/m

0.00 mm

11:05

11.7 C

1007.4 hpa

87 %

3.2 km/h aus 106

9.7 km/h aus NW

9.6 C

11.7 C

11.7 C

11.7 C

0 W/m

0.00 mm

11:10

11.5 C

1007.4 hpa

84 %

4.8 km/h aus 102

8.0 km/h aus NW

8.9 C

11.4 C

11.5 C

11.4 C

0 W/m

0.00 mm

11:15

11.4 C

1007.5 hpa

85 %

3.2 km/h aus 98

6.4 km/h aus NW

9.0 C

11.4 C

11.4 C

11.4 C

0 W/m

0.00 mm

11:20

11.5 C

1007.5 hpa

85 %

3.2 km/h aus 104

9.7 km/h aus NW

9.1 C

11.4 C

11.5 C

11.4 C

0 W/m

0.00 mm

11:25

11.4 C

1007.5 hpa

85 %

4.8 km/h aus 109

11.3 km/h aus NW

9.0 C

11.4 C

11.4 C

11.4 C

0 W/m

0.00 mm

11:30

11.3 C

1007.6 hpa

84 %

4.8 km/h aus 111

11.3 km/h aus NW

8.7 C

11.2 C

11.3 C

11.3 C

0 W/m

0.00 mm

11:35

11.4 C

1007.6 hpa

84 %

3.2 km/h aus 111

6.4 km/h aus NW

8.8 C

11.3 C

11.4 C

11.3 C

0 W/m

0.00 mm

11:40

11.5 C

1007.6 hpa

85 %

1.6 km/h aus 113

4.8 km/h aus NW

9.1 C

11.4 C

11.5 C

11.4 C

0 W/m

0.00 mm

11:45

11.4 C

1007.6 hpa

85 %

3.2 km/h aus 111

8.0 km/h aus NW

9.0 C

11.4 C

11.4 C

11.4 C

0 W/m

0.00 mm

11:50

11.4 C

1007.6 hpa

85 %

4.8 km/h aus 111

11.3 km/h aus NW

9.0 C

11.4 C

11.4 C

11.4 C

0 W/m

0.00 mm

11:55

11.4 C

1007.6 hpa

85 %

4.8 km/h aus 111

8.0 km/h aus NW

9.0 C

11.4 C

11.4 C

11.4 C

0 W/m

0.00 mm

12:00

11.4 C

1007.6 hpa

85 %

3.2 km/h aus 109

9.7 km/h aus NW

9.0 C

11.4 C

11.4 C

11.4 C

0 W/m

0.00 mm

12:05

11.6 C

1007.6 hpa

85 %

3.2 km/h aus 110

8.0 km/h aus NNW

9.1 C

11.5 C

11.6 C

11.5 C

0 W/m

0.00 mm

12:10

11.5 C

1007.6 hpa

84 %

4.8 km/h aus 110

11.3 km/h aus NNW

8.9 C

11.4 C

11.5 C

11.4 C

0 W/m

0.00 mm

12:15

11.6 C

1007.7 hpa

85 %

1.6 km/h aus 110

6.4 km/h aus NNW

9.1 C

11.5 C

11.6 C

11.5 C

0 W/m

0.00 mm

12:20

11.6 C

1007.7 hpa

84 %

3.2 km/h aus 107

8.0 km/h aus NNW

9.0 C

11.6 C

11.6 C

11.6 C

0 W/m

0.00 mm

12:25

11.7 C

1007.7 hpa

84 %

1.6 km/h aus 113

6.4 km/h aus NNW

9.1 C

11.6 C

11.7 C

11.6 C

0 W/m

0.00 mm

12:30

11.7 C

1007.7 hpa

84 %

4.8 km/h aus 111

9.7 km/h aus NNW

9.1 C

11.6 C

11.7 C

11.6 C

0 W/m

0.00 mm

12:35

11.6 C

1007.7 hpa

83 %

3.2 km/h aus 114

8.0 km/h aus NNW

8.8 C

11.5 C

11.6 C

11.5 C

0 W/m

0.00 mm

12:40

11.5 C

1007.7 hpa

83 %

1.6 km/h aus 110

6.4 km/h aus NNW

8.7 C

11.4 C

11.5 C

11.4 C

0 W/m

0.00 mm

12:45

11.4 C

1007.8 hpa

84 %

1.6 km/h aus 112

4.8 km/h aus NNW

8.8 C

11.4 C

11.4 C

11.4 C

0 W/m

0.00 mm

12:50

11.4 C

1007.8 hpa

85 %

1.6 km/h aus 110

6.4 km/h aus NNW

9.0 C

11.4 C

11.4 C

11.4 C

0 W/m

0.00 mm

12:55

11.5 C

1007.8 hpa

85 %

3.2 km/h aus 114

6.4 km/h aus NNW

9.1 C

11.4 C

11.5 C

11.4 C

0 W/m

0.00 mm

13:00

11.6 C

1007.8 hpa

85 %

1.6 km/h aus 113

6.4 km/h aus NNW

9.1 C

11.5 C

11.6 C

11.5 C

0 W/m

0.00 mm

13:05

11.6 C

1007.8 hpa

85 %

4.8 km/h aus 108

16.1 km/h aus NNW

9.1 C

11.5 C

11.6 C

11.5 C

0 W/m

0.00 mm

13:10

11.5 C

1007.8 hpa

85 %

4.8 km/h aus 104

11.3 km/h aus NNW

9.1 C

11.4 C

11.5 C

11.4 C

0 W/m

0.00 mm

13:15

11.5 C

1008.1 hpa

85 %

3.2 km/h aus 107

8.0 km/h aus NNW

9.1 C

11.4 C

11.5 C

11.4 C

0 W/m

0.00 mm

13:20

11.6 C

1008.1 hpa

85 %

1.6 km/h aus 107

6.4 km/h aus NNW

9.1 C

11.5 C

11.6 C

11.5 C

0 W/m

0.00 mm

13:25

11.6 C

1008.1 hpa

85 %

3.2 km/h aus 91

6.4 km/h aus NNW

9.1 C

11.5 C

11.6 C

11.5 C

0 W/m

0.00 mm

13:30

11.6 C

1008.1 hpa

84 %

4.8 km/h aus 110

9.7 km/h aus NNW

8.9 C

11.5 C

11.6 C

11.5 C

0 W/m

0.00 mm

13:35

11.6 C

1008.1 hpa

84 %

4.8 km/h aus 108

14.5 km/h aus NNW

8.9 C

11.5 C

11.6 C

11.5 C

0 W/m

0.00 mm

13:40

11.4 C

1008.1 hpa

84 %

6.4 km/h aus 109

12.9 km/h aus NNW

8.8 C

11.0 C

11.1 C

11.4 C

0 W/m

0.00 mm

13:45

11.4 C

1008.2 hpa

84 %

6.4 km/h aus 107

14.5 km/h aus NNW

8.8 C

11.0 C

11.1 C

11.4 C

0 W/m

0.00 mm

13:50

11.4 C

1008.2 hpa

84 %

4.8 km/h aus 104

11.3 km/h aus NNW

8.8 C

11.4 C

11.4 C

11.4 C

0 W/m

0.00 mm

13:55

11.5 C

1008.2 hpa

84 %

6.4 km/h aus 112

11.3 km/h aus NNW

8.9 C

11.1 C

11.1 C

11.4 C

0 W/m

0.00 mm

14:00

11.6 C

1008.2 hpa

84 %

4.8 km/h aus 105

11.3 km/h aus NNW

8.9 C

11.5 C

11.6 C

11.5 C

0 W/m

0.00 mm

14:05

11.6 C

1008.2 hpa

84 %

6.4 km/h aus 106

14.5 km/h aus NNW

8.9 C

11.1 C

11.2 C

11.5 C

0 W/m

0.00 mm

14:10

11.6 C

1008.2 hpa

83 %

4.8 km/h aus 110

9.7 km/h aus NNW

8.8 C

11.5 C

11.6 C

11.5 C

0 W/m

0.00 mm

14:15

11.6 C

1008.2 hpa

83 %

6.4 km/h aus 109

12.9 km/h aus NNW

8.8 C

11.1 C

11.2 C

11.4 C

0 W/m

0.00 mm

14:20

11.6 C

1008.2 hpa

83 %

6.4 km/h aus 110

11.3 km/h aus NNW

8.8 C

11.1 C

11.2 C

11.4 C

0 W/m

0.00 mm

14:25

11.5 C

1008.2 hpa

84 %

6.4 km/h aus 103

11.3 km/h aus NNW

8.9 C

11.1 C

11.1 C

11.4 C

0 W/m

0.00 mm

14:30

11.4 C

1008.2 hpa

83 %

6.4 km/h aus 111

16.1 km/h aus NW

8.6 C

10.9 C

11.0 C

11.3 C

0 W/m

0.00 mm

14:35

11.3 C

1008.2 hpa

83 %

9.7 km/h aus 106

16.1 km/h aus NW

8.5 C

10.2 C

10.3 C

11.3 C

0 W/m

0.00 mm

14:40

11.3 C

1008.2 hpa

83 %

8.0 km/h aus 103

16.1 km/h aus NW

8.5 C

10.4 C

10.5 C

11.2 C

0 W/m

0.00 mm

14:45

11.3 C

1008.2 hpa

83 %

3.2 km/h aus 100

9.7 km/h aus NW

8.5 C

11.3 C

11.3 C

11.3 C

0 W/m

0.00 mm

14:50

11.4 C

1008.2 hpa

83 %

6.4 km/h aus 107

12.9 km/h aus NW

8.6 C

10.9 C

11.0 C

11.3 C

0 W/m

0.00 mm

14:55

11.4 C

1008.2 hpa

83 %

6.4 km/h aus 106

14.5 km/h aus NW

8.6 C

10.9 C

11.0 C

11.3 C

0 W/m

0.00 mm

15:00

11.4 C

1008.4 hpa

83 %

6.4 km/h aus 108

14.5 km/h aus NW

8.7 C

11.0 C

11.1 C

11.4 C

0 W/m

0.00 mm

15:05

11.6 C

1008.4 hpa

83 %

3.2 km/h aus 109

11.3 km/h aus NW

8.8 C

11.4 C

11.6 C

11.4 C

0 W/m

0.00 mm

15:10

11.5 C

1008.4 hpa

83 %

8.0 km/h aus 106

17.7 km/h aus NW

8.7 C

10.7 C

10.8 C

11.4 C

0 W/m

0.00 mm

15:15

11.4 C

1008.6 hpa

82 %

6.4 km/h aus 106

11.3 km/h aus NW

8.5 C

10.9 C

11.1 C

11.3 C

0 W/m

0.00 mm

15:20

11.4 C

1008.6 hpa

82 %

4.8 km/h aus 110

11.3 km/h aus NW

8.5 C

11.3 C

11.4 C

11.3 C

0 W/m

0.00 mm

15:25

11.3 C

1008.6 hpa

83 %

3.2 km/h aus 112

11.3 km/h aus NW

8.5 C

11.3 C

11.3 C

11.3 C

0 W/m

0.00 mm

15:30

11.3 C

1008.7 hpa

83 %

4.8 km/h aus 107

8.0 km/h aus NW

8.5 C

11.2 C

11.2 C

11.2 C

0 W/m

0.00 mm

15:35

11.2 C

1008.7 hpa

83 %

6.4 km/h aus 108

16.1 km/h aus NNW

8.4 C

10.7 C

10.8 C

11.2 C

0 W/m

0.00 mm

15:40

11.2 C

1008.7 hpa

83 %

8.0 km/h aus 111

17.7 km/h aus NNW

8.4 C

10.3 C

10.4 C

11.1 C

0 W/m

0.00 mm

15:45

11.1 C

1008.8 hpa

84 %

8.0 km/h aus 108

14.5 km/h aus NNW

8.5 C

10.3 C

10.3 C

11.1 C

0 W/m

0.00 mm

15:50

11.2 C

1008.8 hpa

84 %

3.2 km/h aus 112

9.7 km/h aus NNW

8.6 C

11.1 C

11.2 C

11.1 C

0 W/m

0.00 mm

15:55

11.1 C

1008.8 hpa

85 %

4.8 km/h aus 105

9.7 km/h aus NNW

8.7 C

11.1 C

11.1 C

11.1 C

0 W/m

0.00 mm

16:00

11.1 C

1008.9 hpa

85 %

4.8 km/h aus 108

9.7 km/h aus NNW

8.7 C

11.1 C

11.1 C

11.1 C

0 W/m

0.00 mm

16:05

11.1 C

1008.9 hpa

85 %

4.8 km/h aus 110

9.7 km/h aus NNW

8.7 C

11.1 C

11.1 C

11.1 C

0 W/m

0.00 mm

16:10

11.2 C

1008.9 hpa

84 %

4.8 km/h aus 108

11.3 km/h aus NNW

8.6 C

11.1 C

11.2 C

11.2 C

0 W/m

0.00 mm

16:15

11.3 C

1009.0 hpa

85 %

4.8 km/h aus 110

6.4 km/h aus NNW

8.9 C

11.3 C

11.3 C

11.3 C

0 W/m

0.00 mm

16:20

11.3 C

1009.0 hpa

84 %

4.8 km/h aus 107

11.3 km/h aus NNW

8.7 C

11.2 C

11.3 C

11.3 C

0 W/m

0.00 mm

16:25

11.3 C

1009.0 hpa

85 %

3.2 km/h aus 111

8.0 km/h aus NNW

8.9 C

11.3 C

11.3 C

11.3 C

0 W/m

0.00 mm

16:30

11.3 C

1009.2 hpa

85 %

3.2 km/h aus 109

11.3 km/h aus NNW

8.8 C

11.3 C

11.3 C

11.3 C

0 W/m

0.00 mm

16:35

11.1 C

1009.2 hpa

84 %

6.4 km/h aus 108

16.1 km/h aus NNE

8.5 C

10.7 C

10.7 C

11.1 C

0 W/m

0.00 mm

16:40

11.0 C

1009.2 hpa

84 %

4.8 km/h aus 113

11.3 km/h aus N

8.4 C

10.9 C

10.9 C

11.0 C

0 W/m

0.00 mm

16:45

11.0 C

1009.2 hpa

85 %

4.8 km/h aus 113

9.7 km/h aus N

8.6 C

10.9 C

10.9 C

11.0 C

0 W/m

0.00 mm

16:50

11.0 C

1009.2 hpa

84 %

3.2 km/h aus 113

8.0 km/h aus N

8.4 C

11.0 C

11.0 C

11.0 C

0 W/m

0.00 mm

16:55

11.1 C

1009.2 hpa

84 %

6.4 km/h aus 114

9.7 km/h aus N

8.5 C

10.6 C

10.6 C

11.1 C

0 W/m

0.00 mm

17:00

11.1 C

1009.2 hpa

83 %

4.8 km/h aus 112

8.0 km/h aus N

8.3 C

11.0 C

11.1 C

11.1 C

0 W/m

0.00 mm

17:05

11.2 C

1009.2 hpa

83 %

3.2 km/h aus 111

8.0 km/h aus N

8.4 C

11.1 C

11.2 C

11.1 C

0 W/m

0.00 mm

17:10

11.1 C

1009.2 hpa

83 %

6.4 km/h aus 113

16.1 km/h aus NNW

8.3 C

10.6 C

10.7 C

11.1 C

0 W/m

0.00 mm

17:15

11.1 C

1009.2 hpa

83 %

4.8 km/h aus 107

11.3 km/h aus NNW

8.3 C

11.0 C

11.1 C

11.1 C

0 W/m

0.00 mm

17:20

11.1 C

1009.2 hpa

84 %

3.2 km/h aus 109

11.3 km/h aus NNW

8.5 C

11.1 C

11.1 C

11.1 C

0 W/m

0.00 mm

17:25

11.2 C

1009.2 hpa

84 %

4.8 km/h aus 106

12.9 km/h aus N

8.6 C

11.1 C

11.1 C

11.1 C

0 W/m

0.00 mm

17:30

11.2 C

1009.3 hpa

85 %

4.8 km/h aus 110

14.5 km/h aus N

8.7 C

11.1 C

11.1 C

11.2 C

0 W/m

0.00 mm

17:35

11.1 C

1009.3 hpa

85 %

6.4 km/h aus 103

12.9 km/h aus NNW

8.7 C

10.7 C

10.7 C

11.1 C

0 W/m

0.00 mm

17:40

11.0 C

1009.3 hpa

85 %

8.0 km/h aus 112

14.5 km/h aus NNW

8.6 C

10.2 C

10.2 C

11.0 C

0 W/m

0.00 mm

17:45

11.0 C

1009.4 hpa

86 %

6.4 km/h aus 107

16.1 km/h aus NNW

8.7 C

10.6 C

10.6 C

11.0 C

0 W/m

0.00 mm

17:50

10.9 C

1009.4 hpa

86 %

4.8 km/h aus 109

14.5 km/h aus NNW

8.7 C

10.9 C

10.9 C

10.9 C

0 W/m

0.00 mm

17:55

10.8 C

1009.4 hpa

86 %

4.8 km/h aus 111

9.7 km/h aus NNW

8.6 C

10.8 C

10.8 C

10.8 C

0 W/m

0.00 mm

18:00

10.8 C

1009.6 hpa

86 %

4.8 km/h aus 105

14.5 km/h aus NNW

8.5 C

10.7 C

10.7 C

10.8 C

0 W/m

0.00 mm

18:05

10.8 C

1009.6 hpa

87 %

4.8 km/h aus 99

11.3 km/h aus NNW

8.7 C

10.7 C

10.7 C

10.8 C

0 W/m

0.00 mm

18:10

10.7 C

1009.6 hpa

87 %

4.8 km/h aus 104

14.5 km/h aus NNW

8.6 C

10.7 C

10.6 C

10.8 C

0 W/m

0.00 mm

18:15

10.7 C

1009.7 hpa

88 %

6.4 km/h aus 109

11.3 km/h aus NW

8.8 C

10.2 C

10.1 C

10.7 C

0 W/m

0.00 mm

18:20

10.7 C

1009.7 hpa

89 %

3.2 km/h aus 114

8.0 km/h aus NW

8.9 C

10.8 C

10.7 C

10.8 C

0 W/m

0.00 mm

18:25

10.6 C

1009.7 hpa

90 %

3.2 km/h aus 113

6.4 km/h aus NW

9.0 C

10.7 C

10.6 C

10.7 C

0 W/m

0.00 mm

18:30

10.6 C

1009.7 hpa

90 %

3.2 km/h aus 114

8.0 km/h aus NW

9.0 C

10.7 C

10.6 C

10.7 C

0 W/m

0.00 mm

18:35

10.6 C

1009.7 hpa

91 %

3.2 km/h aus 113

6.4 km/h aus NW

9.1 C

10.7 C

10.6 C

10.7 C

0 W/m

0.00 mm

18:40

10.6 C

1009.7 hpa

91 %

3.2 km/h aus 115

8.0 km/h aus NW

9.1 C

10.7 C

10.6 C

10.7 C

0 W/m

0.00 mm

18:45

10.5 C

1009.8 hpa

91 %

3.2 km/h aus 109

9.7 km/h aus NW

9.1 C

10.7 C

10.5 C

10.7 C

0 W/m

0.00 mm

18:50

10.5 C

1009.8 hpa

92 %

4.8 km/h aus 114

8.0 km/h aus NW

9.3 C

10.6 C

10.4 C

10.7 C

0 W/m

0.00 mm

18:55

10.5 C

1009.8 hpa

91 %

4.8 km/h aus 116

9.7 km/h aus NW

9.1 C

10.6 C

10.4 C

10.7 C

0 W/m

0.00 mm

19:00

10.4 C

1009.8 hpa

92 %

4.8 km/h aus 116

9.7 km/h aus NW

9.2 C

10.5 C

10.3 C

10.6 C

0 W/m

0.00 mm

19:05

10.4 C

1009.8 hpa

91 %

6.4 km/h aus 109

16.1 km/h aus NNW

9.0 C

10.1 C

9.9 C

10.6 C

0 W/m

0.00 mm

19:10

10.4 C

1009.8 hpa

91 %

6.4 km/h aus 111

16.1 km/h aus NNW

9.0 C

10.1 C

9.9 C

10.6 C

0 W/m

0.00 mm

19:15

10.4 C

1009.8 hpa

91 %

3.2 km/h aus 112

9.7 km/h aus NNW

9.0 C

10.6 C

10.4 C

10.6 C

0 W/m

0.00 mm

19:20

10.4 C

1009.8 hpa

91 %

4.8 km/h aus 115

9.7 km/h aus NNW

9.0 C

10.5 C

10.3 C

10.6 C

0 W/m

0.00 mm

19:25

10.4 C

1009.8 hpa

90 %

4.8 km/h aus 113

9.7 km/h aus NNW

8.9 C

10.4 C

10.3 C

10.6 C

0 W/m

0.00 mm

19:30

10.4 C

1010.0 hpa

90 %

4.8 km/h aus 113

8.0 km/h aus NNW

8.9 C

10.4 C

10.3 C

10.6 C

0 W/m

0.00 mm

19:35

10.4 C

1010.0 hpa

90 %

3.2 km/h aus 113

6.4 km/h aus NNW

8.9 C

10.6 C

10.4 C

10.6 C

0 W/m

0.00 mm

19:40

10.4 C

1010.0 hpa

90 %

3.2 km/h aus 111

9.7 km/h aus NNW

8.9 C

10.6 C

10.4 C

10.6 C

0 W/m

0.00 mm

19:45

10.4 C

1010.2 hpa

90 %

3.2 km/h aus 96

8.0 km/h aus NNW

8.9 C

10.6 C

10.4 C

10.6 C

0 W/m

0.00 mm

19:50

10.4 C

1010.2 hpa

90 %

3.2 km/h aus 100

6.4 km/h aus NNW

8.9 C

10.6 C

10.4 C

10.6 C

0 W/m

0.00 mm

19:55

10.4 C

1010.2 hpa

90 %

3.2 km/h aus 98

6.4 km/h aus NNW

8.9 C

10.6 C

10.4 C

10.6 C

0 W/m

0.00 mm

20:00

10.5 C

1010.2 hpa

90 %

1.6 km/h aus 106

8.0 km/h aus NNW

8.9 C

10.6 C

10.5 C

10.6 C

0 W/m

0.00 mm

20:05

10.5 C

1010.2 hpa

90 %

4.8 km/h aus 100

8.0 km/h aus NNW

8.9 C

10.5 C

10.4 C

10.6 C

0 W/m

0.00 mm

20:10

10.6 C

1010.2 hpa

90 %

1.6 km/h aus 111

6.4 km/h aus NW

9.0 C

10.7 C

10.6 C

10.7 C

0 W/m

0.00 mm

20:15

10.6 C

1010.3 hpa

90 %

1.6 km/h aus 111

4.8 km/h aus NW

9.0 C

10.7 C

10.6 C

10.7 C

0 W/m

0.00 mm

20:20

10.6 C

1010.3 hpa

90 %

1.6 km/h aus 115

6.4 km/h aus NW

9.0 C

10.7 C

10.6 C

10.7 C

0 W/m

0.00 mm

20:25

10.6 C

1010.3 hpa

90 %

1.6 km/h aus 107

4.8 km/h aus NW

9.0 C

10.7 C

10.6 C

10.7 C

0 W/m

0.00 mm

20:30

10.6 C

1010.3 hpa

90 %

3.2 km/h aus 108

6.4 km/h aus NW

9.0 C

10.7 C

10.6 C

10.7 C

0 W/m

0.00 mm

20:35

10.6 C

1010.3 hpa

89 %

1.6 km/h aus 106

6.4 km/h aus NW

8.9 C

10.7 C

10.6 C

10.7 C

0 W/m

0.00 mm

20:40

10.6 C

1010.3 hpa

89 %

1.6 km/h aus 105

4.8 km/h aus NW

8.9 C

10.7 C

10.6 C

10.7 C

0 W/m

0.00 mm

20:45

10.7 C

1010.7 hpa

89 %

1.6 km/h aus 106

4.8 km/h aus NW

8.9 C

10.8 C

10.7 C

10.8 C

0 W/m

0.00 mm

20:50

10.7 C

1010.7 hpa

89 %

0.0 km/h aus 105

3.2 km/h aus NW

8.9 C

10.8 C

10.7 C

10.8 C

0 W/m

0.00 mm

20:55

10.7 C

1010.7 hpa

89 %

0.0 km/h aus 108

3.2 km/h aus NW

8.9 C

10.8 C

10.7 C

10.8 C

0 W/m

0.00 mm

21:00

10.7 C

1010.8 hpa

89 %

1.6 km/h aus 106

3.2 km/h aus NW

8.9 C

10.8 C

10.7 C

10.8 C

0 W/m

0.00 mm

21:05

10.7 C

1010.8 hpa

89 %

0.0 km/h aus 112

1.6 km/h aus NW

8.9 C

10.8 C

10.7 C

10.8 C

0 W/m

0.00 mm

21:10

10.7 C

1010.8 hpa

89 %

1.6 km/h aus 103

3.2 km/h aus NW

9.0 C

10.8 C

10.7 C

10.8 C

0 W/m

0.00 mm

21:15

10.7 C

1011.0 hpa

89 %

3.2 km/h aus 111

4.8 km/h aus NW

9.0 C

10.8 C

10.7 C

10.8 C

0 W/m

0.00 mm

21:20

10.7 C

1011.0 hpa

88 %

1.6 km/h aus 109

4.8 km/h aus NW

8.8 C

10.8 C

10.7 C

10.8 C

0 W/m

0.00 mm

21:25

10.7 C

1011.0 hpa

88 %

1.6 km/h aus 112

4.8 km/h aus NW

8.8 C

10.8 C

10.7 C

10.8 C

0 W/m

0.00 mm

21:30

10.7 C

1011.3 hpa

88 %

1.6 km/h aus 113

4.8 km/h aus NW

8.8 C

10.8 C

10.7 C

10.8 C

0 W/m

0.00 mm

21:35

10.7 C

1011.3 hpa

88 %

0.0 km/h aus 107

3.2 km/h aus NW

8.8 C

10.8 C

10.7 C

10.8 C

0 W/m

0.00 mm

21:40

10.8 C

1011.3 hpa

88 %

3.2 km/h aus 107

9.7 km/h aus NNW

8.9 C

10.8 C

10.8 C

10.8 C

0 W/m

0.00 mm

21:45

10.8 C

1011.6 hpa

88 %

3.2 km/h aus 109

8.0 km/h aus NNW

8.9 C

10.8 C

10.8 C

10.8 C

0 W/m

0.00 mm

21:50

10.8 C

1011.6 hpa

88 %

3.2 km/h aus 109

8.0 km/h aus NNW

8.9 C

10.8 C

10.8 C

10.8 C

0 W/m

0.00 mm

21:55

10.8 C

1011.6 hpa

88 %

1.6 km/h aus 110

4.8 km/h aus NNW

8.9 C

10.8 C

10.8 C

10.8 C

0 W/m

0.00 mm

22:00

10.8 C

1011.8 hpa

88 %

3.2 km/h aus 112

6.4 km/h aus NNW

8.9 C

10.8 C

10.8 C

10.8 C

0 W/m

0.00 mm

22:05

10.8 C

1011.8 hpa

88 %

3.2 km/h aus 114

6.4 km/h aus NNW

8.9 C

10.8 C

10.8 C

10.8 C

0 W/m

0.00 mm

22:10

10.7 C

1011.8 hpa

88 %

1.6 km/h aus 107

4.8 km/h aus NNW

8.8 C

10.8 C

10.7 C

10.8 C

0 W/m

0.00 mm

22:15

10.8 C

1011.8 hpa

88 %

1.6 km/h aus 106

6.4 km/h aus NNW

8.9 C

10.8 C

10.8 C

10.8 C

0 W/m

0.00 mm

22:20

10.7 C

1011.8 hpa

88 %

3.2 km/h aus 111

6.4 km/h aus NNW

8.8 C

10.8 C

10.7 C

10.8 C

0 W/m

0.00 mm

22:25

10.8 C

1011.8 hpa

88 %

0.0 km/h aus 111

3.2 km/h aus NNW

8.9 C

10.8 C

10.8 C

10.8 C

0 W/m

0.00 mm

22:30

10.7 C

1011.9 hpa

88 %

3.2 km/h aus 112

6.4 km/h aus NNW

8.8 C

10.8 C

10.7 C

10.8 C

0 W/m

0.00 mm

22:35

10.7 C

1011.9 hpa

88 %

1.6 km/h aus 107

4.8 km/h aus NNW

8.8 C

10.8 C

10.7 C

10.8 C

0 W/m

0.00 mm

22:40

10.7 C

1011.9 hpa

88 %

1.6 km/h aus 113

6.4 km/h aus NNW

8.8 C

10.8 C

10.7 C

10.8 C

0 W/m

0.00 mm

22:45

10.7 C

1011.9 hpa

88 %

1.6 km/h aus 114

3.2 km/h aus NNW

8.8 C

10.8 C

10.7 C

10.8 C

0 W/m

0.00 mm

22:50

10.7 C

1011.9 hpa

89 %

1.6 km/h aus 113

6.4 km/h aus NNW

9.0 C

10.8 C

10.7 C

10.8 C

0 W/m

0.00 mm

22:55

10.7 C

1011.9 hpa

89 %

3.2 km/h aus 110

8.0 km/h aus NNW

8.9 C

10.8 C

10.7 C

10.8 C

0 W/m

0.00 mm

23:00

10.7 C

1011.9 hpa

89 %

1.6 km/h aus 112

6.4 km/h aus NNW

8.9 C

10.8 C

10.7 C

10.8 C

0 W/m

0.00 mm

23:05

10.7 C

1011.9 hpa

89 %

1.6 km/h aus 110

6.4 km/h aus NNW

8.9 C

10.8 C

10.7 C

10.8 C

0 W/m

0.00 mm

23:10

10.7 C

1011.9 hpa

89 %

0.0 km/h aus 113

3.2 km/h aus NNW

8.9 C

10.8 C

10.7 C

10.8 C

0 W/m

0.00 mm

23:15

10.7 C

1012.2 hpa

89 %

0.0 km/h aus 107

0.0 km/h aus ---

8.9 C

10.8 C

10.7 C

10.8 C

0 W/m

0.00 mm

23:20

10.6 C

1012.2 hpa

89 %

1.6 km/h aus 108

4.8 km/h aus NNW

8.9 C

10.7 C

10.6 C

10.7 C

0 W/m

0.00 mm

23:25

10.6 C

1012.2 hpa

89 %

1.6 km/h aus 107

4.8 km/h aus NNW

8.9 C

10.7 C

10.6 C

10.7 C

0 W/m

0.00 mm

23:30

10.6 C

1012.3 hpa

89 %

1.6 km/h aus 113

3.2 km/h aus NNW

8.9 C

10.7 C

10.6 C

10.7 C

0 W/m

0.00 mm

23:35

10.6 C

1012.3 hpa

89 %

1.6 km/h aus 112

4.8 km/h aus NNW

8.9 C

10.7 C

10.6 C

10.7 C

0 W/m

0.00 mm

23:40

10.6 C

1012.3 hpa

89 %

1.6 km/h aus 114

4.8 km/h aus NNW

8.8 C

10.7 C

10.6 C

10.7 C

0 W/m

0.00 mm

23:45

10.5 C

1012.3 hpa

89 %

1.6 km/h aus 110

4.8 km/h aus NNW

8.8 C

10.6 C

10.5 C

10.6 C

0 W/m

0.00 mm

23:50

10.5 C

1012.3 hpa

89 %

3.2 km/h aus 111

6.4 km/h aus NNW

8.8 C

10.6 C

10.5 C

10.6 C

0 W/m

0.00 mm

23:55

10.4 C

1012.3 hpa

89 %

3.2 km/h aus 112

6.4 km/h aus NNW

8.7 C

10.6 C

10.4 C

10.6 C

0 W/m

0.00 mm